| time (UTC) | temp F | wind direction | speed knots | gust knots | rain 1hr in | rain 24hr in | rain mn in | humidity % | barometer mb |
| 20260510234543 | 58 | 91 | 2.6 | 13.0 | 0.00 | 0.00 | 0.00 | 55 | 995.4 |
| 20260510234033 | 58 | 153 | 5.2 | 7.8 | 0.00 | 0.00 | 0.00 | 53 | 995.4 |
| 20260510233533 | 59 | 225 | 2.6 | 7.8 | 0.00 | 0.00 | 0.00 | 49 | 994.9 |
| 20260510233033 | 60 | 122 | 0.9 | 8.7 | 0.00 | 0.00 | 0.00 | 50 | 994.9 |
| 20260510232532 | 60 | 56 | 3.5 | 8.7 | 0.00 | 0.00 | 0.00 | 49 | 994.9 |
| 20260510232032 | 61 | 105 | 0.9 | 6.1 | 0.00 | 0.00 | 0.00 | 48 | 994.7 |
| 20260510231533 | 61 | 96 | 0.9 | 5.2 | 0.00 | 0.00 | 0.00 | 48 | 994.6 |
| 20260510231032 | 61 | 22 | 0.9 | 5.2 | 0.00 | 0.00 | 0.00 | 49 | 994.6 |
| 20260510230533 | 61 | 317 | 1.7 | 8.7 | 0.00 | 0.00 | 0.00 | 48 | 994.5 |
| 20260510230032 | 61 | 52 | 1.7 | 5.2 | 0.00 | 0.00 | 0.00 | 48 | 994.5 |
| 20260510225531 | 61 | 78 | 1.7 | 6.1 | 0.00 | 0.00 | 0.00 | 47 | 994.5 |
| 20260510225031 | 61 | 17 | 0.9 | 5.2 | 0.00 | 0.00 | 0.00 | 46 | 994.5 |
| 20260510224535 | 61 | 16 | 1.7 | 5.2 | 0.00 | 0.00 | 0.00 | 47 | 994.6 |
| 20260510224030 | 62 | 34 | 1.7 | 6.1 | 0.00 | 0.00 | 0.00 | 45 | 994.6 |
| 20260510223530 | 62 | 67 | 1.7 | 5.2 | 0.00 | 0.00 | 0.00 | 47 | 994.5 |
| 20260510223030 | 62 | 315 | 0.9 | 5.2 | 0.00 | 0.00 | 0.00 | 46 | 994.7 |
| 20260510222530 | 62 | 313 | 1.7 | 5.2 | 0.00 | 0.00 | 0.00 | 47 | 994.4 |
| 20260510222029 | 61 | 54 | 1.7 | 5.2 | 0.00 | 0.00 | 0.00 | 46 | 994.4 |
| 20260510221530 | 62 | 329 | 1.7 | 5.2 | 0.00 | 0.00 | 0.00 | 46 | 994.4 |
| 20260510221030 | 62 | 297 | 1.7 | 5.2 | 0.00 | 0.00 | 0.00 | 47 | 994.4 |
| 20260510220529 | 62 | 307 | 2.6 | 5.2 | 0.00 | 0.00 | 0.00 | 49 | 994.3 |
| 20260510220028 | 61 | 54 | 0.9 | 4.3 | 0.00 | 0.00 | 0.00 | 47 | 994.4 |
| 20260510215528 | 61 | 355 | 1.7 | 7.0 | 0.00 | 0.00 | 0.00 | 49 | 994.5 |
| 20260510215025 | 60 | 24 | 1.7 | 8.7 | 0.00 | 0.00 | 0.00 | 48 | 994.5 |
| 20260510214528 | 61 | 311 | 2.6 | 5.2 | 0.00 | 0.00 | 0.00 | 49 | 994.5 |
| 20260510214025 | 60 | 78 | 0.0 | 5.2 | 0.00 | 0.00 | 0.00 | 48 | 994.4 |
| 20260510213523 | 60 | 304 | 1.7 | 4.3 | 0.00 | 0.00 | 0.00 | 49 | 994.5 |
| 20260510213022 | 59 | 42 | 2.6 | 5.2 | 0.00 | 0.00 | 0.00 | 49 | 994.7 |
| 20260510212522 | 59 | 36 | 1.7 | 10.4 | 0.00 | 0.00 | 0.00 | 49 | 994.7 |
| 20260510212022 | 59 | 60 | 2.6 | 7.8 | 0.00 | 0.00 | 0.00 | 49 | 994.7 |
| 20260510211531 | 59 | 68 | 1.7 | 7.8 | 0.00 | 0.00 | 0.00 | 48 | 994.7 |
| 20260510211024 | 60 | 48 | 2.6 | 7.8 | 0.00 | 0.00 | 0.00 | 47 | 994.8 |
| 20260510210519 | 60 | 360 | 1.7 | 7.0 | 0.00 | 0.00 | 0.00 | 49 | 994.8 |
| 20260510210023 | 60 | 19 | 1.7 | 7.8 | 0.00 | 0.00 | 0.00 | 48 | 994.8 |
| 20260510205518 | 59 | 67 | 3.5 | 7.0 | 0.00 | 0.00 | 0.00 | 51 | 994.9 |
| 20260510205017 | 59 | 49 | 1.7 | 7.8 | 0.00 | 0.00 | 0.00 | 49 | 994.8 |
| 20260510204527 | 59 | 33 | 2.6 | 8.7 | 0.00 | 0.00 | 0.00 | 49 | 994.9 |
| 20260510204017 | 59 | 88 | 4.3 | 8.7 | 0.00 | 0.00 | 0.00 | 50 | 994.8 |
| 20260510203514 | 59 | 121 | 2.6 | 7.8 | 0.00 | 0.00 | 0.00 | 49 | 994.8 |
| 20260510203016 | 59 | 61 | 1.7 | 8.7 | 0.00 | 0.00 | 0.00 | 51 | 994.7 |
| 20260510202514 | 59 | 36 | 2.6 | 8.7 | 0.00 | 0.00 | 0.00 | 51 | 994.8 |
| 20260510202012 | 58 | 22 | 1.7 | 7.8 | 0.00 | 0.00 | 0.00 | 53 | 994.7 |
| 20260510201511 | 58 | 355 | 1.7 | 8.7 | 0.00 | 0.00 | 0.00 | 52 | 994.7 |
| 20260510201010 | 58 | 51 | 2.6 | 8.7 | 0.00 | 0.00 | 0.00 | 52 | 994.9 |
| 20260510200509 | 57 | 13 | 0.9 | 9.6 | 0.00 | 0.00 | 0.00 | 54 | 994.9 |
| 20260510200009 | 57 | 9 | 3.5 | 9.6 | 0.00 | 0.00 | 0.00 | 52 | 994.9 |
| 20260510195507 | 56 | 5 | 2.6 | 8.7 | 0.00 | 0.00 | 0.00 | 54 | 994.8 |
| 20260510195009 | 56 | 265 | 2.6 | 8.7 | 0.00 | 0.00 | 0.00 | 53 | 994.9 |
| 20260510194511 | 56 | 36 | 1.7 | 8.7 | 0.00 | 0.00 | 0.00 | 54 | 994.9 |
| 20260510194006 | 56 | 16 | 1.7 | 8.7 | 0.00 | 0.00 | 0.00 | 54 | 994.9 |
| 20260510193507 | 56 | 54 | 2.6 | 8.7 | 0.00 | 0.00 | 0.00 | 55 | 994.9 |
| 20260510193006 | 56 | 335 | 2.6 | 7.0 | 0.00 | 0.00 | 0.00 | 54 | 994.9 |
| 20260510192506 | 56 | 355 | 1.7 | 8.7 | 0.00 | 0.00 | 0.00 | 54 | 994.9 |
| 20260510192007 | 56 | 94 | 3.5 | 8.7 | 0.00 | 0.00 | 0.00 | 54 | 994.9 |
| 20260510191505 | 56 | 19 | 1.7 | 4.3 | 0.00 | 0.00 | 0.00 | 57 | 995.0 |
| 20260510191005 | 56 | 5 | 1.7 | 8.7 | 0.00 | 0.00 | 0.00 | 56 | 994.9 |
| 20260510190501 | 55 | 32 | 2.6 | 8.7 | 0.00 | 0.00 | 0.00 | 56 | 995.0 |
| 20260510190109 | 55 | 57 | 2.6 | 7.8 | 0.00 | 0.00 | 0.00 | 58 | 994.9 |
| 20260510185559 | 54 | 33 | 1.7 | 7.8 | 0.00 | 0.00 | 0.00 | 58 | 994.9 |
| 20260510185057 | 54 | 360 | 2.6 | 11.3 | 0.00 | 0.00 | 0.00 | 60 | 994.9 |
| 20260510184609 | 54 | 48 | 4.3 | 10.4 | 0.00 | 0.00 | 0.00 | 57 | 994.9 |
| 20260510184057 | 54 | 30 | 2.6 | 7.0 | 0.00 | 0.00 | 0.00 | 59 | 994.8 |
| 20260510183555 | 53 | 5 | 1.7 | 7.8 | 0.00 | 0.00 | 0.00 | 59 | 994.7 |
| 20260510183109 | 53 | 5 | 3.5 | 10.4 | 0.00 | 0.00 | 0.00 | 58 | 994.8 |
| 20260510182553 | 53 | 83 | 0.9 | 4.3 | 0.00 | 0.00 | 0.00 | 59 | 994.8 |
| 20260510182052 | 54 | 355 | 1.7 | 4.3 | 0.00 | 0.00 | 0.00 | 59 | 995.0 |
| 20260510181613 | 54 | 265 | 1.7 | 7.0 | 0.00 | 0.00 | 0.00 | 59 | 995.0 |
| 20260510181052 | 54 | 30 | 1.7 | 7.0 | 0.00 | 0.00 | 0.00 | 59 | 995.1 |
| 20260510180550 | 54 | 45 | 2.6 | 4.3 | 0.00 | 0.00 | 0.00 | 61 | 995.0 |
| 20260510180053 | 54 | 52 | 1.7 | 7.8 | 0.00 | 0.00 | 0.00 | 60 | 995.0 |
| 20260510175548 | 53 | 310 | 2.6 | 7.8 | 0.00 | 0.00 | 0.00 | 61 | 995.1 |
| 20260510175047 | 53 | 9 | 2.6 | 6.1 | 0.00 | 0.00 | 0.00 | 61 | 995.0 |
| 20260510174557 | 53 | 360 | 2.6 | 5.2 | 0.00 | 0.00 | 0.00 | 60 | 995.0 |
| 20260510174044 | 52 | 26 | 1.7 | 7.0 | 0.00 | 0.00 | 0.00 | 63 | 995.1 |
| 20260510173542 | 52 | 338 | 2.6 | 9.6 | 0.00 | 0.00 | 0.00 | 62 | 995.0 |
| 20260510173041 | 52 | 42 | 3.5 | 9.6 | 0.00 | 0.00 | 0.00 | 62 | 995.0 |
| 20260510172541 | 52 | 11 | 1.7 | 7.8 | 0.00 | 0.00 | 0.00 | 63 | 995.2 |
| 20260510172041 | 52 | 35 | 3.5 | 11.3 | 0.00 | 0.00 | 0.00 | 62 | 995.3 |
| 20260510171556 | 52 | 11 | 2.6 | 12.2 | 0.00 | 0.00 | 0.00 | 63 | 995.3 |
| 20260510171042 | 51 | 355 | 2.6 | 6.1 | 0.00 | 0.00 | 0.00 | 64 | 995.3 |
| 20260510170541 | 51 | 30 | 2.6 | 6.1 | 0.00 | 0.00 | 0.00 | 65 | 995.2 |
| 20260510170045 | 50 | 355 | 1.7 | 5.2 | 0.00 | 0.00 | 0.00 | 67 | 995.2 |
| 20260510165535 | 49 | 338 | 1.7 | 4.3 | 0.00 | 0.00 | 0.00 | 68 | 995.3 |
| 20260510165033 | 49 | 336 | 1.7 | 7.8 | 0.00 | 0.00 | 0.00 | 67 | 995.2 |
| 20260510164534 | 49 | 5 | 1.7 | 7.8 | 0.00 | 0.00 | 0.00 | 68 | 995.2 |
| 20260510164031 | 49 | 5 | 1.7 | 5.2 | 0.00 | 0.00 | 0.00 | 68 | 995.1 |
| 20260510163530 | 48 | 36 | 1.7 | 6.1 | 0.00 | 0.00 | 0.00 | 69 | 995.0 |
| 20260510163028 | 48 | 351 | 1.7 | 6.1 | 0.00 | 0.00 | 0.00 | 71 | 995.0 |
| 20260510162526 | 47 | 32 | 1.7 | 7.0 | 0.00 | 0.00 | 0.00 | 72 | 995.1 |
| 20260510162025 | 46 | 9 | 2.6 | 7.0 | 0.00 | 0.00 | 0.00 | 73 | 995.1 |
| 20260510161524 | 46 | 32 | 1.7 | 7.0 | 0.00 | 0.00 | 0.00 | 73 | 995.1 |
| 20260510161024 | 46 | 324 | 1.7 | 4.3 | 0.00 | 0.00 | 0.00 | 73 | 995.1 |
| 20260510160521 | 45 | 5 | 1.7 | 7.8 | 0.00 | 0.00 | 0.00 | 73 | 995.1 |
| 20260510160030 | 45 | 10 | 1.7 | 7.8 | 0.00 | 0.00 | 0.00 | 73 | 995.1 |
| 20260510155520 | 45 | 15 | 2.6 | 7.0 | 0.00 | 0.00 | 0.00 | 73 | 995.1 |
| 20260510155020 | 45 | 18 | 1.7 | 4.3 | 0.00 | 0.00 | 0.00 | 73 | 995.0 |
| 20260510154519 | 45 | 5 | 0.9 | 4.3 | 0.00 | 0.00 | 0.00 | 74 | 995.0 |
| 20260510154019 | 45 | 38 | 2.6 | 8.7 | 0.00 | 0.00 | 0.00 | 74 | 995.0 |
| 20260510153516 | 44 | 35 | 3.5 | 7.0 | 0.00 | 0.00 | 0.00 | 75 | 994.9 |
| 20260510153024 | 44 | 355 | 1.7 | 3.5 | 0.00 | 0.00 | 0.00 | 76 | 995.0 |
| 20260510152515 | 44 | 38 | 1.7 | 7.0 | 0.00 | 0.00 | 0.00 | 76 | 994.9 |
| 20260510152016 | 43 | 37 | 1.7 | 7.0 | 0.00 | 0.00 | 0.00 | 76 | 995.0 |
| 20260510151518 | 43 | 48 | 1.7 | 3.5 | 0.00 | 0.00 | 0.00 | 76 | 994.9 |
| 20260510151013 | 43 | 355 | 1.7 | 4.3 | 0.00 | 0.00 | 0.00 | 77 | 994.9 |
| 20260510150513 | 43 | 54 | 1.7 | 4.3 | 0.00 | 0.00 | 0.00 | 77 | 994.9 |
| 20260510150015 | 43 | 11 | 1.7 | 5.2 | 0.00 | 0.00 | 0.00 | 77 | 994.8 |
| 20260510145511 | 43 | 33 | 1.7 | 3.5 | 0.00 | 0.00 | 0.00 | 77 | 994.8 |
| 20260510145012 | 43 | 14 | 1.7 | 4.3 | 0.00 | 0.00 | 0.00 | 77 | 994.6 |
| 20260510144513 | 43 | 38 | 1.7 | 5.2 | 0.00 | 0.00 | 0.00 | 77 | 994.8 |
| 20260510144011 | 43 | 51 | 1.7 | 5.2 | 0.00 | 0.00 | 0.00 | 78 | 994.7 |
| 20260510143510 | 43 | 19 | 2.6 | 4.3 | 0.00 | 0.00 | 0.00 | 78 | 994.8 |
| 20260510143012 | 42 | 18 | 1.7 | 5.2 | 0.00 | 0.00 | 0.00 | 78 | 994.8 |
| 20260510142510 | 42 | 26 | 1.7 | 5.2 | 0.00 | 0.00 | 0.00 | 78 | 994.8 |
| 20260510142009 | 42 | 24 | 2.6 | 5.2 | 0.00 | 0.00 | 0.00 | 78 | 994.9 |
| 20260510141508 | 42 | 14 | 1.7 | 7.0 | 0.00 | 0.00 | 0.00 | 78 | 994.9 |
| 20260510141010 | 42 | 17 | 2.6 | 7.0 | 0.00 | 0.00 | 0.00 | 78 | 994.9 |
| 20260510140507 | 42 | 21 | 1.7 | 4.3 | 0.00 | 0.00 | 0.00 | 79 | 995.0 |
| 20260510140007 | 42 | 11 | 1.7 | 3.5 | 0.00 | 0.00 | 0.00 | 79 | 994.9 |
| 20260510135507 | 42 | 25 | 1.7 | 3.5 | 0.00 | 0.01 | 0.00 | 79 | 995.0 |
| 20260510135006 | 42 | 327 | 1.7 | 3.5 | 0.00 | 0.01 | 0.00 | 79 | 994.8 |
| 20260510134506 | 42 | 22 | 0.9 | 2.6 | 0.00 | 0.01 | 0.00 | 79 | 994.7 |
| 20260510134005 | 42 | 22 | 0.9 | 2.6 | 0.00 | 0.01 | 0.00 | 79 | 994.8 |
| 20260510133504 | 42 | 339 | 1.7 | 3.5 | 0.00 | 0.01 | 0.00 | 80 | 994.7 |
| 20260510133005 | 41 | 24 | 1.7 | 3.5 | 0.00 | 0.01 | 0.00 | 80 | 994.9 |
| 20260510132504 | 41 | 24 | 1.7 | 3.5 | 0.00 | 0.01 | 0.00 | 81 | 994.9 |
| 20260510132003 | 41 | 19 | 0.9 | 2.6 | 0.00 | 0.01 | 0.00 | 81 | 994.9 |
| 20260510131503 | 40 | 19 | 1.7 | 3.5 | 0.00 | 0.01 | 0.00 | 82 | 994.9 |
| 20260510131003 | 40 | 333 | 0.9 | 2.6 | 0.00 | 0.01 | 0.00 | 82 | 994.9 |
| 20260510130501 | 40 | 308 | 0.9 | 2.6 | 0.00 | 0.01 | 0.00 | 82 | 995.0 |
| 20260510130101 | 40 | 5 | 0.9 | 2.6 | 0.00 | 0.01 | 0.00 | 81 | 994.9 |
| 20260510125702 | 40 | 5 | 0.9 | 2.6 | 0.00 | 0.02 | 0.00 | 81 | 994.9 |
| 20260510125100 | 40 | 24 | 0.9 | 2.6 | 0.00 | 0.02 | 0.00 | 81 | 994.8 |
| 20260510124603 | 40 | 24 | 0.9 | 2.6 | 0.00 | 0.02 | 0.00 | 81 | 994.9 |
| 20260510124057 | 40 | 24 | 0.9 | 2.6 | 0.00 | 0.02 | 0.00 | 80 | 994.9 |
| 20260510123557 | 41 | 28 | 0.0 | 0.0 | 0.00 | 0.02 | 0.00 | 80 | 995.0 |
| 20260510123056 | 41 | 28 | 0.0 | 0.0 | 0.00 | 0.02 | 0.00 | 80 | 995.0 |
| 20260510122555 | 41 | 27 | 0.0 | 0.0 | 0.00 | 0.02 | 0.00 | 80 | 995.0 |
| 20260510122056 | 41 | 27 | 0.0 | 1.7 | 0.00 | 0.02 | 0.00 | 79 | 995.0 |
| 20260510121555 | 41 | 27 | 0.0 | 2.6 | 0.00 | 0.02 | 0.00 | 79 | 995.1 |
| 20260510121053 | 41 | 27 | 0.9 | 3.5 | 0.00 | 0.02 | 0.00 | 79 | 995.0 |
| 20260510120553 | 41 | 28 | 1.7 | 3.5 | 0.00 | 0.02 | 0.00 | 79 | 995.0 |
| 20260510120053 | 42 | 21 | 0.9 | 3.5 | 0.00 | 0.02 | 0.00 | 79 | 995.0 |
| 20260510115551 | 42 | 29 | 1.7 | 2.6 | 0.00 | 0.04 | 0.00 | 78 | 994.9 |
| 20260510115051 | 42 | 28 | 0.9 | 3.5 | 0.00 | 0.04 | 0.00 | 78 | 995.0 |
| 20260510114604 | 42 | 34 | 0.9 | 2.6 | 0.00 | 0.04 | 0.00 | 78 | 995.0 |
| 20260510114052 | 42 | 30 | 1.7 | 2.6 | 0.00 | 0.04 | 0.00 | 78 | 995.0 |
| 20260510113549 | 42 | 360 | 1.7 | 2.6 | 0.00 | 0.04 | 0.00 | 78 | 995.0 |
| 20260510113056 | 42 | 360 | 0.9 | 3.5 | 0.00 | 0.04 | 0.00 | 78 | 994.9 |
| 20260510112549 | 42 | 5 | 1.7 | 3.5 | 0.00 | 0.04 | 0.00 | 78 | 995.0 |
| 20260510112049 | 42 | 329 | 0.9 | 3.5 | 0.00 | 0.04 | 0.00 | 78 | 995.0 |
| 20260510111551 | 42 | 24 | 1.7 | 4.3 | 0.00 | 0.04 | 0.00 | 78 | 995.1 |
| 20260510111048 | 42 | 31 | 1.7 | 4.3 | 0.00 | 0.04 | 0.00 | 78 | 995.0 |
| 20260510110548 | 42 | 29 | 1.7 | 7.0 | 0.00 | 0.04 | 0.00 | 78 | 995.1 |
| 20260510110054 | 42 | 355 | 1.7 | 7.0 | 0.00 | 0.04 | 0.00 | 78 | 995.0 |
| 20260510105547 | 42 | 5 | 0.9 | 3.5 | 0.00 | 0.04 | 0.00 | 78 | 995.1 |
| 20260510105047 | 42 | 5 | 1.7 | 3.5 | 0.00 | 0.04 | 0.00 | 78 | 995.0 |
| 20260510104548 | 42 | 11 | 1.7 | 4.3 | 0.00 | 0.04 | 0.00 | 78 | 995.0 |
| 20260510104046 | 42 | 333 | 1.7 | 5.2 | 0.00 | 0.04 | 0.00 | 78 | 994.9 |
| 20260510103546 | 42 | 24 | 0.9 | 3.5 | 0.00 | 0.04 | 0.00 | 78 | 994.8 |
| 20260510103051 | 42 | 24 | 1.7 | 7.8 | 0.00 | 0.04 | 0.00 | 78 | 994.9 |
| 20260510102545 | 42 | 355 | 2.6 | 7.8 | 0.00 | 0.04 | 0.00 | 78 | 994.8 |
| 20260510102044 | 42 | 61 | 2.6 | 5.2 | 0.00 | 0.04 | 0.00 | 78 | 994.8 |
| 20260510101557 | 42 | 355 | 1.7 | 3.5 | 0.00 | 0.04 | 0.00 | 78 | 994.8 |
| 20260510101043 | 42 | 32 | 1.7 | 3.5 | 0.00 | 0.04 | 0.00 | 78 | 994.8 |
| 20260510100543 | 42 | 351 | 1.7 | 3.5 | 0.00 | 0.04 | 0.00 | 77 | 994.8 |
| 20260510100050 | 42 | 355 | 1.7 | 3.5 | 0.00 | 0.04 | 0.00 | 77 | 994.8 |
| 20260510095542 | 42 | 5 | 1.7 | 3.5 | 0.00 | 0.04 | 0.00 | 78 | 994.8 |
| 20260510095042 | 42 | 273 | 1.7 | 4.3 | 0.00 | 0.04 | 0.00 | 77 | 994.8 |
| 20260510094547 | 42 | 22 | 1.7 | 5.2 | 0.00 | 0.04 | 0.00 | 77 | 994.6 |
| 20260510094043 | 42 | 29 | 2.6 | 5.2 | 0.00 | 0.04 | 0.00 | 77 | 994.7 |
| 20260510093538 | 42 | 13 | 1.7 | 3.5 | 0.00 | 0.04 | 0.00 | 77 | 994.6 |
| 20260510093040 | 42 | 27 | 1.7 | 5.2 | 0.00 | 0.04 | 0.00 | 77 | 994.5 |
| 20260510092537 | 42 | 17 | 2.6 | 5.2 | 0.00 | 0.04 | 0.00 | 77 | 994.5 |
| 20260510092036 | 42 | 355 | 1.7 | 3.5 | 0.00 | 0.04 | 0.00 | 77 | 994.4 |
| 20260510091535 | 43 | 10 | 1.7 | 3.5 | 0.00 | 0.04 | 0.00 | 76 | 994.4 |
| 20260510091036 | 43 | 360 | 1.7 | 8.7 | 0.00 | 0.04 | 0.00 | 77 | 994.4 |
| 20260510090535 | 43 | 355 | 2.6 | 8.7 | 0.00 | 0.04 | 0.00 | 77 | 994.5 |
| 20260510090036 | 43 | 5 | 1.7 | 4.3 | 0.00 | 0.04 | 0.00 | 76 | 994.4 |
| 20260510085533 | 43 | 22 | 1.7 | 4.3 | 0.00 | 0.04 | 0.00 | 76 | 994.4 |
| 20260510085033 | 43 | 5 | 1.7 | 3.5 | 0.00 | 0.04 | 0.00 | 76 | 994.3 |
| 20260510084534 | 43 | 355 | 1.7 | 3.5 | 0.00 | 0.04 | 0.00 | 76 | 994.4 |
| 20260510084031 | 43 | 355 | 1.7 | 3.5 | 0.00 | 0.04 | 0.00 | 76 | 994.4 |
| 20260510083531 | 43 | 355 | 0.9 | 2.6 | 0.00 | 0.04 | 0.00 | 75 | 994.3 |
| 20260510083030 | 43 | 322 | 1.7 | 2.6 | 0.00 | 0.04 | 0.00 | 75 | 994.3 |
| 20260510082528 | 44 | 319 | 1.7 | 2.6 | 0.00 | 0.04 | 0.00 | 74 | 994.3 |
| 20260510082026 | 44 | 317 | 0.9 | 3.5 | 0.00 | 0.04 | 0.00 | 74 | 994.3 |
| 20260510081535 | 44 | 313 | 1.7 | 3.5 | 0.00 | 0.04 | 0.00 | 73 | 994.2 |
| 20260510081025 | 45 | 342 | 1.7 | 3.5 | 0.00 | 0.04 | 0.00 | 73 | 994.2 |
| 20260510080523 | 45 | 345 | 0.9 | 3.5 | 0.00 | 0.04 | 0.00 | 72 | 994.1 |
| 20260510080038 | 45 | 355 | 1.7 | 3.5 | 0.00 | 0.04 | 0.00 | 72 | 994.2 |
| 20260510075522 | 45 | 324 | 0.9 | 7.8 | 0.00 | 0.04 | 0.00 | 71 | 994.1 |
| 20260510075019 | 45 | 331 | 1.7 | 7.8 | 0.00 | 0.04 | 0.00 | 71 | 994.1 |
| 20260510074518 | 46 | 319 | 1.7 | 3.5 | 0.00 | 0.04 | 0.00 | 70 | 994.0 |
| 20260510074018 | 46 | 355 | 0.9 | 4.3 | 0.00 | 0.04 | 0.00 | 70 | 994.1 |
| 20260510073516 | 46 | 26 | 1.7 | 4.3 | 0.00 | 0.04 | 0.00 | 70 | 994.0 |
| 20260510073028 | 46 | 23 | 1.7 | 4.3 | 0.00 | 0.04 | 0.00 | 69 | 994.0 |
| 20260510072515 | 47 | 26 | 1.7 | 4.3 | 0.00 | 0.04 | 0.00 | 69 | 993.9 |
| 20260510072013 | 47 | 16 | 1.7 | 3.5 | 0.00 | 0.04 | 0.00 | 68 | 993.9 |
| 20260510071518 | 47 | 20 | 1.7 | 5.2 | 0.00 | 0.04 | 0.00 | 68 | 993.9 |
| 20260510071011 | 47 | 15 | 2.6 | 5.2 | 0.00 | 0.04 | 0.00 | 67 | 993.9 |
| 20260510070512 | 48 | 10 | 1.7 | 5.2 | 0.00 | 0.04 | 0.00 | 67 | 993.9 |
| 20260510070011 | 48 | 9 | 2.6 | 10.4 | 0.00 | 0.04 | 0.00 | 67 | 993.8 |
| 20260510065510 | 48 | 26 | 1.7 | 10.4 | 0.00 | 0.04 | 0.00 | 66 | 993.8 |
| 20260510065010 | 48 | 10 | 1.7 | 4.3 | 0.00 | 0.04 | 0.00 | 66 | 993.8 |
| 20260510064512 | 49 | 30 | 2.6 | 4.3 | 0.00 | 0.04 | 0.00 | 66 | 993.7 |
| 20260510064008 | 49 | 5 | 1.7 | 4.3 | 0.00 | 0.04 | 0.00 | 66 | 993.7 |
| 20260510063507 | 49 | 21 | 0.9 | 4.3 | 0.00 | 0.04 | 0.00 | 66 | 993.7 |
| 20260510063006 | 49 | 20 | 1.7 | 4.3 | 0.00 | 0.04 | 0.00 | 66 | 993.7 |
| 20260510062505 | 49 | 48 | 1.7 | 4.3 | 0.00 | 0.04 | 0.00 | 65 | 993.7 |
| 20260510062004 | 50 | 40 | 1.7 | 4.3 | 0.00 | 0.04 | 0.00 | 65 | 993.6 |
| 20260510061506 | 50 | 21 | 1.7 | 5.2 | 0.00 | 0.04 | 0.00 | 65 | 993.5 |
| 20260510061004 | 50 | 25 | 1.7 | 5.2 | 0.00 | 0.04 | 0.00 | 65 | 993.6 |
| 20260510060504 | 50 | 9 | 0.9 | 3.5 | 0.00 | 0.04 | 0.00 | 65 | 993.6 |
| 20260510060007 | 50 | 5 | 1.7 | 4.3 | 0.00 | 0.04 | 0.00 | 64 | 993.5 |
| 20260510055502 | 50 | 22 | 1.7 | 4.3 | 0.00 | 0.04 | 0.00 | 64 | 993.5 |
| 20260510055103 | 51 | 5 | 0.9 | 4.3 | 0.00 | 0.04 | 0.00 | 64 | 993.4 |
| 20260510054601 | 51 | 5 | 0.9 | 2.6 | 0.00 | 0.04 | 0.00 | 63 | 993.5 |
| 20260510054058 | 51 | 341 | 0.0 | 3.5 | 0.00 | 0.04 | 0.00 | 63 | 993.4 |
| 20260510053556 | 51 | 30 | 0.9 | 3.5 | 0.00 | 0.04 | 0.00 | 62 | 993.4 |
| 20260510053058 | 52 | 24 | 0.9 | 3.5 | 0.00 | 0.04 | 0.00 | 62 | 993.4 |
| 20260510052554 | 52 | 329 | 0.9 | 3.5 | 0.00 | 0.04 | 0.00 | 62 | 993.2 |
| 20260510052054 | 53 | 5 | 1.7 | 3.5 | 0.00 | 0.04 | 0.00 | 61 | 993.3 |
| 20260510051605 | 53 | 325 | 0.9 | 3.5 | 0.00 | 0.04 | 0.00 | 60 | 993.3 |
| 20260510051053 | 53 | 323 | 1.7 | 4.3 | 0.00 | 0.04 | 0.00 | 60 | 993.2 |
| 20260510050553 | 53 | 309 | 0.0 | 5.2 | 0.00 | 0.04 | 0.00 | 60 | 993.2 |
| 20260510050059 | 54 | 24 | 0.9 | 6.1 | 0.00 | 0.04 | 0.00 | 59 | 993.2 |
| 20260510045550 | 54 | 5 | 1.7 | 6.1 | 0.00 | 0.04 | 0.00 | 59 | 993.1 |
| 20260510045050 | 54 | 43 | 1.7 | 3.5 | 0.00 | 0.04 | 0.00 | 59 | 993.2 |
| 20260510044549 | 54 | 5 | 0.9 | 2.6 | 0.00 | 0.04 | 0.00 | 59 | 993.2 |
| 20260510044048 | 55 | 48 | 0.0 | 2.6 | 0.00 | 0.04 | 0.00 | 58 | 993.1 |
| 20260510043547 | 55 | 50 | 0.0 | 2.6 | 0.00 | 0.04 | 0.00 | 58 | 993.2 |
| 20260510043048 | 55 | 5 | 0.0 | 3.5 | 0.00 | 0.04 | 0.00 | 57 | 993.2 |
| 20260510042548 | 55 | 34 | 0.9 | 3.5 | 0.00 | 0.04 | 0.00 | 56 | 993.2 |
| 20260510042047 | 56 | 9 | 0.9 | 3.5 | 0.00 | 0.04 | 0.00 | 57 | 993.2 |
| 20260510041547 | 56 | 42 | 0.9 | 4.3 | 0.00 | 0.04 | 0.00 | 56 | 993.1 |
| 20260510041047 | 56 | 32 | 2.6 | 4.3 | 0.00 | 0.04 | 0.00 | 55 | 993.2 |
| 20260510040549 | 56 | 19 | 1.7 | 4.3 | 0.00 | 0.04 | 0.00 | 55 | 993.2 |
| 20260510040048 | 57 | 329 | 1.7 | 7.8 | 0.00 | 0.04 | 0.00 | 54 | 993.2 |
| 20260510035548 | 57 | 14 | 1.7 | 7.8 | 0.00 | 0.04 | 0.00 | 53 | 993.2 |
| 20260510035047 | 57 | 69 | 1.7 | 6.1 | 0.00 | 0.04 | 0.00 | 53 | 993.1 |
| 20260510034547 | 57 | 27 | 0.9 | 7.0 | 0.00 | 0.04 | 0.00 | 53 | 993.1 |
| 20260510034047 | 58 | 33 | 1.7 | 7.0 | 0.00 | 0.04 | 0.00 | 52 | 993.1 |
| 20260510033549 | 58 | 37 | 0.9 | 8.7 | 0.00 | 0.04 | 0.00 | 52 | 993.1 |
| 20260510033054 | 58 | 52 | 3.5 | 8.7 | 0.00 | 0.04 | 0.00 | 51 | 993.1 |
| 20260510032545 | 59 | 32 | 1.7 | 7.0 | 0.00 | 0.04 | 0.00 | 51 | 993.1 |
| 20260510032045 | 59 | 322 | 1.7 | 3.5 | 0.00 | 0.04 | 0.00 | 50 | 993.2 |
| 20260510031548 | 59 | 313 | 0.9 | 4.3 | 0.00 | 0.04 | 0.00 | 51 | 993.1 |
| 20260510031049 | 59 | 34 | 1.7 | 5.2 | 0.00 | 0.04 | 0.00 | 51 | 993.1 |
| 20260510030544 | 59 | 360 | 1.7 | 5.2 | 0.00 | 0.04 | 0.00 | 49 | 993.1 |
| 20260510030044 | 60 | 20 | 0.9 | 7.8 | 0.00 | 0.04 | 0.00 | 49 | 993.1 |
| 20260510025543 | 60 | 83 | 0.9 | 7.8 | 0.00 | 0.04 | 0.00 | 48 | 993.1 |
| 20260510025043 | 60 | 46 | 1.7 | 5.2 | 0.00 | 0.04 | 0.00 | 46 | 993.1 |
| 20260510024543 | 60 | 35 | 0.0 | 7.0 | 0.00 | 0.04 | 0.00 | 47 | 993.1 |
| 20260510024042 | 60 | 313 | 0.0 | 7.0 | 0.00 | 0.04 | 0.00 | 50 | 993.0 |
| 20260510023542 | 60 | 98 | 2.6 | 7.0 | 0.00 | 0.04 | 0.00 | 48 | 993.1 |
| 20260510023042 | 60 | 5 | 1.7 | 4.3 | 0.00 | 0.04 | 0.00 | 49 | 993.0 |
| 20260510022542 | 60 | 305 | 0.9 | 4.3 | 0.00 | 0.04 | 0.00 | 48 | 992.9 |
| 20260510022044 | 60 | 355 | 1.7 | 7.8 | 0.00 | 0.04 | 0.00 | 49 | 992.9 |
| 20260510021634 | 60 | 40 | 1.7 | 7.8 | 0.00 | 0.04 | 0.00 | 48 | 993.0 |
| 20260510021040 | 60 | 22 | 0.9 | 5.2 | 0.00 | 0.04 | 0.00 | 48 | 993.0 |
| 20260510020540 | 60 | 63 | 0.9 | 3.5 | 0.00 | 0.04 | 0.00 | 46 | 993.1 |
| 20260510020039 | 60 | 164 | 0.9 | 3.5 | 0.00 | 0.04 | 0.00 | 48 | 993.1 |
| 20260510015539 | 60 | 18 | 0.9 | 3.5 | 0.00 | 0.04 | 0.00 | 47 | 993.2 |
| 20260510015037 | 60 | 82 | 0.9 | 5.2 | 0.00 | 0.04 | 0.00 | 47 | 993.2 |
| 20260510014551 | 60 | 77 | 1.7 | 7.0 | 0.00 | 0.04 | 0.00 | 46 | 993.3 |
| 20260510014037 | 60 | 76 | 1.7 | 7.0 | 0.00 | 0.04 | 0.00 | 48 | 993.4 |
| 20260510013537 | 60 | 98 | 2.6 | 6.1 | 0.00 | 0.04 | 0.00 | 48 | 993.4 |
| 20260510013035 | 60 | 65 | 1.7 | 4.3 | 0.00 | 0.04 | 0.00 | 48 | 993.3 |
| 20260510012534 | 60 | 103 | 0.9 | 7.0 | 0.00 | 0.04 | 0.00 | 47 | 993.5 |
| 20260510012037 | 60 | 84 | 0.0 | 7.0 | 0.00 | 0.04 | 0.00 | 48 | 993.4 |
| 20260510011534 | 60 | 70 | 0.9 | 5.2 | 0.00 | 0.04 | 0.00 | 48 | 993.5 |
| 20260510011032 | 60 | 175 | 0.0 | 3.5 | 0.00 | 0.04 | 0.00 | 49 | 993.5 |
| 20260510010531 | 59 | 131 | 0.0 | 3.5 | 0.00 | 0.04 | 0.00 | 49 | 993.6 |
| 20260510010041 | 59 | 105 | 1.7 | 3.5 | 0.00 | 0.04 | 0.00 | 50 | 993.7 |
| 20260510005530 | 59 | 155 | 0.0 | 3.5 | 0.00 | 0.04 | 0.00 | 53 | 993.7 |
| 20260510005029 | 58 | 86 | 1.7 | 3.5 | 0.00 | 0.04 | 0.00 | 52 | 993.8 |
| 20260510004529 | 58 | 80 | 0.9 | 2.6 | 0.00 | 0.04 | 0.00 | 52 | 993.8 |
| 20260510004031 | 58 | 103 | 0.0 | 3.5 | 0.00 | 0.04 | 0.00 | 51 | 993.8 |
| 20260510003531 | 58 | 80 | 0.9 | 3.5 | 0.00 | 0.04 | 0.00 | 52 | 993.9 |
| 20260510003028 | 58 | 20 | 0.0 | 2.6 | 0.00 | 0.04 | 0.00 | 52 | 993.9 |
| 20260510002525 | 59 | 187 | 0.9 | 2.6 | 0.00 | 0.04 | 0.00 | 52 | 994.0 |
| 20260510002026 | 59 | 202 | 0.9 | 6.1 | 0.00 | 0.04 | 0.00 | 53 | 994.0 |
| 20260510001526 | 59 | 135 | 0.9 | 6.1 | 0.00 | 0.04 | 0.00 | 51 | 994.1 |
| 20260510001026 | 59 | 152 | 0.0 | 7.0 | 0.00 | 0.04 | 0.00 | 52 | 994.2 |
| 20260510000526 | 59 | 111 | 0.0 | 7.0 | 0.00 | 0.04 | 0.00 | 53 | 994.2 |
| 20260510000025 | 59 | 162 | 0.9 | 3.5 | 0.00 | 0.04 | 0.00 | 52 | 994.1 |
| 20260509235524 | 59 | 141 | 0.0 | 3.5 | 0.00 | 0.04 | 0.00 | 54 | 994.2 |
| 20260509235024 | 59 | 88 | 0.9 | 3.5 | 0.00 | 0.04 | 0.00 | 54 | 994.3 |